Date String (YYYY-MM-DD hh:mm:ss) UTC,Instrument flags,Ambient pressure (hPa),Sample flow (lpm),Bypass flow (lpm),Sample temperature (°C),Ambient temperature (°C),ASC tube jacket temperature (°C),LED temperature (°C),Box temperature (°C),Sample RH (%),Span deviation,Mass concentration (μg/m³),Mass concentration (μg/m³),Mass concentration (μg/m³)
DateTimeUTC,F1_M11,P_M11,Q1_M11,Q2_M11,T1_M11,T2_M11,T3_M11,T4_M11,T5_M11,U1_M11,ZSPAN_M11,X0_M11,X2_M11,X1_M11
2022-09-24 13:00:00,,0830.3,4.98,0.00,30.3,28.7,00.0,39.2,32.1,11.4,0000.0,0007.36,0002.91,0002.10
2022-09-24 13:01:00,,0830.3,5.01,0.00,30.3,28.7,00.0,39.2,32.1,11.3,0000.0,0006.79,0002.89,0002.10
2022-09-24 13:02:00,,0830.3,5.00,0.00,30.4,28.7,00.0,39.2,32.1,11.3,0000.0,0007.07,0002.96,0002.12
2022-09-24 13:03:00,,0830.4,5.00,0.00,30.4,28.7,00.0,39.2,32.1,11.2,0000.0,0007.17,0003.03,0002.13
2022-09-24 13:04:00,,0830.4,5.01,0.00,30.3,28.7,00.0,39.2,32.1,11.2,0000.0,0007.30,0003.06,0002.13
2022-09-24 13:05:00,,0830.4,5.01,0.00,30.3,28.7,00.0,39.2,32.1,11.2,0000.0,0007.34,0003.03,0002.13
2022-09-24 13:06:00,,0830.4,5.00,0.00,30.3,28.7,00.0,39.2,32.1,11.2,0000.0,0007.52,0003.07,0002.15
2022-09-24 13:07:00,,0830.4,5.00,0.00,30.3,28.7,00.0,39.1,32.1,11.2,0000.0,0007.20,0003.06,0002.16
2022-09-24 13:08:00,,0830.4,5.00,0.00,30.3,28.7,00.0,39.1,32.1,11.3,0000.0,0007.10,0003.03,0002.16
2022-09-24 13:09:00,,0830.4,4.99,0.00,30.3,28.7,00.0,39.1,32.1,11.2,0000.0,0006.85,0003.00,0002.15
2022-09-24 13:10:00,,0830.4,5.02,0.00,30.3,28.7,00.0,39.1,32.1,11.2,0000.0,0006.39,0002.96,0002.13
2022-09-24 13:11:00,,0830.4,4.99,0.00,30.3,28.7,00.0,39.1,32.1,11.2,0000.0,0006.49,0002.99,0002.12
2022-09-24 13:12:00,,0830.4,5.01,0.00,30.3,28.6,00.0,39.1,32.1,11.2,0000.0,0006.37,0002.98,0002.11
2022-09-24 13:13:00,,0830.4,4.99,0.00,30.3,28.6,00.0,39.1,32.1,11.1,0000.0,0006.02,0002.97,0002.11
2022-09-24 13:14:00,,0830.4,5.02,0.00,30.3,28.6,00.0,39.1,32.1,11.2,0000.0,0005.64,0002.93,0002.11
2022-09-24 13:15:00,,0830.3,5.00,0.00,30.3,28.6,00.0,39.1,32.1,11.1,0000.0,0005.75,0002.92,0002.11
2022-09-24 13:16:00,,0830.3,5.00,0.00,30.3,28.6,00.0,39.1,32.1,11.1,0000.0,0005.68,0002.92,0002.11
2022-09-24 13:17:00,,0830.4,5.00,0.00,30.3,28.6,00.0,39.1,32.1,11.1,0000.0,0005.34,0002.91,0002.11
2022-09-24 13:18:00,,0830.4,5.01,0.00,30.3,28.6,00.0,39.1,32.1,11.1,0000.0,0005.32,0002.91,0002.11
2022-09-24 13:19:00,,0830.5,4.99,0.00,30.3,28.6,00.0,39.1,32.1,11.1,0000.0,0005.83,0002.97,0002.11
2022-09-24 13:20:00,,0830.4,5.01,0.00,30.3,28.6,00.0,39.1,32.1,11.1,0000.0,0006.08,0003.03,0002.13
2022-09-24 13:21:00,,0830.5,4.99,0.00,30.3,28.7,00.0,39.1,32.1,11.1,0000.0,0006.17,0003.07,0002.15
2022-09-24 13:22:00,,0830.5,5.01,0.00,30.3,28.7,00.0,39.1,32.1,11.1,0000.0,0006.01,0003.04,0002.16
2022-09-24 13:23:00,,0830.5,5.00,0.00,30.3,28.7,00.0,39.1,32.1,11.1,0000.0,0006.01,0003.03,0002.18
2022-09-24 13:24:00,,0830.5,4.99,0.00,30.3,28.7,00.0,39.1,32.1,11.0,0000.0,0005.86,0002.98,0002.16
2022-09-24 13:25:00,,0830.5,5.01,0.00,30.3,28.7,00.0,39.1,32.1,11.1,0000.0,0005.57,0002.91,0002.15
2022-09-24 13:26:00,,0830.5,4.99,0.00,30.3,28.7,00.0,39.1,32.1,11.1,0000.0,0005.63,0002.85,0002.14
2022-09-24 13:27:00,,0830.6,5.00,0.00,30.3,28.7,00.0,39.1,32.1,11.1,0000.0,0005.79,0002.80,0002.13
2022-09-24 13:28:00,,0830.5,5.00,0.00,30.3,28.7,00.0,39.1,32.1,11.0,0000.0,0005.98,0002.77,0002.11
2022-09-24 13:29:00,,0830.5,4.99,0.00,30.3,28.7,00.0,39.1,32.1,11.0,0000.0,0005.93,0002.77,0002.10
2022-09-24 13:30:00,,0830.5,5.01,0.00,30.3,28.7,00.0,39.1,32.1,12.4,0000.0,0006.19,0002.72,0002.09
2022-09-24 13:31:00,,0830.5,4.99,0.00,30.3,28.6,00.0,39.1,32.1,11.8,0000.0,0005.95,0002.66,0002.08
2022-09-24 13:32:00,,0830.5,5.01,0.00,30.3,28.6,00.0,39.1,32.1,11.4,0000.0,0005.92,0002.60,0002.08
2022-09-24 13:33:00,,0830.5,4.99,0.00,30.3,28.6,00.0,39.1,32.1,11.5,0000.0,0007.19,0002.61,0002.07
2022-09-24 13:34:00,,0830.5,5.01,0.00,30.3,28.6,00.0,39.1,32.1,11.6,0000.0,0007.19,0002.60,0002.07
2022-09-24 13:35:00,,0830.5,4.99,0.00,30.3,28.7,00.0,39.1,32.1,11.5,0000.0,0007.35,0002.65,0002.08
2022-09-24 13:36:00,,0830.5,4.99,0.00,30.3,28.7,00.0,39.1,32.1,11.4,0000.0,0007.90,0002.74,0002.09
2022-09-24 13:37:00,,0830.5,5.01,0.00,30.3,28.7,00.0,39.1,32.1,11.4,0000.0,0007.99,0002.77,0002.11
2022-09-24 13:38:00,,0830.5,4.99,0.00,30.3,28.7,00.0,39.1,32.1,11.6,0000.0,0007.85,0002.78,0002.11
2022-09-24 13:39:00,,0830.5,5.01,0.00,30.3,28.8,00.0,39.1,32.1,11.4,0000.0,0007.70,0002.80,0002.13
2022-09-24 13:40:00,,0830.5,5.00,0.00,30.3,28.8,00.0,39.1,32.1,11.3,0000.0,0008.14,0002.82,0002.13
2022-09-24 13:41:00,,0830.5,4.99,0.00,30.3,28.8,00.0,39.1,32.1,11.2,0000.0,0007.89,0002.85,0002.14
2022-09-24 13:42:00,,0830.4,5.01,0.00,30.3,28.8,00.0,39.1,32.1,11.2,0000.0,0007.93,0002.88,0002.15
2022-09-24 13:43:00,,0830.4,4.99,0.00,30.3,28.8,00.0,39.1,32.1,11.2,0000.0,0008.08,0002.95,0002.14
2022-09-24 13:44:00,,0830.5,5.01,0.00,30.3,28.8,00.0,39.1,32.2,11.2,0000.0,0008.06,0003.00,0002.15
2022-09-24 13:45:00,,0830.5,5.00,0.00,30.3,28.8,00.0,39.1,32.2,11.2,0000.0,0008.21,0003.00,0002.16
2022-09-24 13:46:00,,0830.6,4.99,0.00,30.3,28.9,00.0,39.1,32.2,11.4,0000.0,0008.16,0002.97,0002.17
2022-09-24 13:47:00,,0830.6,5.00,0.00,30.4,28.9,00.0,39.1,32.2,11.9,0000.0,0007.92,0003.00,0002.20
2022-09-24 13:48:00,,0830.5,4.99,0.00,30.4,28.9,00.0,39.1,32.2,11.5,0000.0,0007.67,0003.02,0002.21
2022-09-24 13:49:00,,0830.5,5.01,0.00,30.4,28.9,00.0,39.1,32.2,11.8,0000.0,0007.73,0003.07,0002.22
2022-09-24 13:50:00,,0830.6,4.99,0.00,30.4,28.9,00.0,39.1,32.2,12.0,0000.0,0007.74,0003.03,0002.22
2022-09-24 13:51:00,,0830.5,5.00,0.00,30.4,28.9,00.0,39.1,32.2,12.0,0000.0,0007.52,0003.01,0002.23
2022-09-24 13:52:00,,0830.5,4.99,0.00,30.4,28.9,00.0,39.1,32.2,11.9,0000.0,0007.46,0002.98,0002.22
2022-09-24 13:53:00,,0830.5,4.99,0.00,30.4,28.9,00.0,39.1,32.2,12.0,0000.0,0007.48,0002.97,0002.23
2022-09-24 13:54:00,,0830.5,5.01,0.00,30.4,28.9,00.0,39.2,32.2,11.9,0000.0,0007.44,0002.97,0002.25
2022-09-24 13:55:00,,0830.5,4.99,0.00,30.4,28.9,00.0,39.2,32.2,12.0,0000.0,0006.67,0002.95,0002.25
2022-09-24 13:56:00,,0830.6,5.00,0.00,30.4,29.0,00.0,39.2,32.2,12.1,0000.0,0006.38,0002.96,0002.24
2022-09-24 13:57:00,,0830.5,5.00,0.00,30.4,29.0,00.0,39.2,32.2,12.9,0000.0,0006.42,0002.96,0002.23
2022-09-24 13:58:00,,0830.5,4.99,0.00,30.4,29.0,00.0,39.2,32.2,12.2,0000.0,0006.17,0002.90,0002.20
2022-09-24 13:59:00,,0830.5,5.00,0.00,30.4,29.0,00.0,39.2,32.2,11.9,0000.0,0006.31,0002.97,0002.19
